Regional Weather Roundup
Issued by NWS

Home | Current Version | Previous Version | Text Only | Print | Product List | Glossary On
Versions: 1 2 3 4 5 6 7 8 9 10 11 12 13 14 15 16 17 18 19 20 21 22 23 24 25 26 27 28 29 30 31 32 33 34 35 36 37 38 39 40 41 42 43 44 45 46 47 48 49 50
000
ASUS43 KTOP 260059
RWRKS

WEATHER ROUNDUP FOR KANSAS
NATIONAL WEATHER SERVICE GOODLAND KS
700 PM CST THU DEC 25 2014

NOTE:  "FAIR" INDICATES FEW OR NO CLOUDS BELOW 12,000 FEET WITH NO
SIGNIFICANT WEATHER AND/OR OBSTRUCTIONS TO VISIBILITY.

KSZ001>006-013>018-027>032-041>047-260200-
NORTHWEST KANSAS

CITY           SKY/WX    TMP DP  RH WIND       PRES   REMARKS
GOODLAND       CLEAR     31  27  85 N17       29.62R WCI  19
HAYS           MOCLDY    46  25  42 SW9       29.58R
HILL CITY      MOCLDY    37  25  61 N15       29.60R WCI  28
RUSSELL        MOCLDY    46  28  49 NW12      29.57R
$$

KSZ061>065-074>080-084>089-260200-
SOUTHWEST KANSAS

CITY           SKY/WX    TMP DP  RH WIND       PRES   REMARKS
DODGE CITY     MOCLDY    47  23  38 S14       29.57R
ELKHART          N/A     50  17  27 SW10        N/A
GARDEN CITY    PTCLDY    45  22  40 SW10      29.55R
GREAT BEND     CLOUDY    46  27  46 S20       29.58R
LIBERAL        PTCLDY    43  16  33 S13       29.62R
$$

KSZ066>073-081>083-090>101-260200-
SOUTHEAST KANSAS

CITY           SKY/WX    TMP DP  RH WIND       PRES   REMARKS
CHANUTE        CLOUDY    51  30  44 S21G29    29.77R
COFFEYVILLE    MOCLDY    52  30  43 S21       29.80R
HUTCHINSON     CLOUDY    50  28  42 S22G28    29.65R
NEWTON         CLOUDY    50  27  40 S29G37    29.67R
PARSONS        MOCLDY    52  30  43 S15G23    29.80R
WICHITA INTL   CLOUDY    51  28  41 S21G28    29.69R
WICHITA JABRA  CLOUDY    52  27  38 S21G40    29.69R
WINFIELD       CLOUDY    52  27  38 S18       29.73R
$$

KSZ007>012-019>026-033>040-048>060-102>105-260200-
NORTHEAST KANSAS

CITY           SKY/WX    TMP DP  RH WIND       PRES   REMARKS
CONCORDIA      MOCLDY    42  30  62 S7        29.60R
EMPORIA        CLOUDY    51  27  39 S21G31    29.69R
LAWRENCE       CLOUDY    49  31  49 S12       29.73R
MANHATTAN      PTCLDY    51  29  42 S15G25    29.65R
OLATHE IND     CLOUDY    49  31  49 S15       29.75R
OLATHE EXE     CLOUDY    50  30  46 S14       29.74R
SALINA         MOCLDY    49  30  48 S12       29.61R
TOPEKA BILLARD MOCLDY    50  31  48 S12       29.71R
TOPEKA FORBES  MOCLDY    49  31  49 S14       29.70R
$$


USA.gov is the U.S. government's official web portal to all federal, state and local government web resources and services.